PU3WIW-13 Weather Reports


time (UTC)temp
C
wind
direction
speed
KPH
gust
KPH
rain 1hr
cm
rain 24hr
cm
rain mn
cm
humidity
%
barometer
mb
20260508075215 15 272 3.2 14.5 0.18 2.31 0.86 10 999.4
20260508074914 15 270 4.8 14.5 0.18 2.31 0.86 10 999.2
20260508074613 15 268 4.8 14.5 0.18 2.31 0.86 10 999.2
20260508074315 15 259 3.2 19.3 0.18 2.31 0.86 10 998.9
20260508074014 15 248 4.8 19.3 0.18 2.31 0.86 10 999.2
20260508073713 15 263 4.8 19.3 0.10 2.26 0.81 10 999.2
20260508073415 16 275 6.4 19.3 0.10 2.26 0.81 10 999.2
20260508073114 16 286 8.0 17.7 0.18 2.26 0.81 10 999.2
20260508072813 16 303 6.4 17.7 0.18 2.26 0.81 10 998.7
20260508072514 16 289 4.8 19.3 0.10 2.18 0.74 10 998.7
20260508072214 16 297 3.2 19.3 0.10 2.18 0.74 10 998.7
20260508071913 16 290 4.8 19.3 0.10 2.18 0.74 10 998.7
20260508071614 16 300 9.7 19.3 0.18 2.18 0.74 10 998.4
20260508071314 16 332 4.8 24.1 0.18 2.18 0.74 10 998.5
20260508071013 16 317 4.8 24.1 0.18 2.18 0.74 10 998.6
20260508070712 16 306 4.8 32.2 0.18 2.18 0.74 10 998.2
20260508070414 16 306 3.2 32.2 0.10 2.13 0.69 10 998.4
20260508070113 16 298 4.8 32.2 0.10 2.13 0.69 10 998.5
20260508065812 16 328 14.5 32.2 0.10 2.13 0.69 10 998.5
20260508065513 16 10 4.8 30.6 0.10 2.13 0.69 10 997.6
20260508065213 16 13 4.8 30.6 0.10 2.13 0.69 10 998.2
20260508064912 16 18 4.8 30.6 0.18 2.13 0.69 10 997.9
20260508064613 16 9 19.3 30.6 0.18 2.13 0.69 10 997.5
20260508064312 16 19 9.7 24.1 0.18 2.13 0.69 10 997.2
20260508064012 16 3 8.0 20.9 0.18 2.13 0.69 10 997.1
20260508063713 16 341 4.8 20.9 0.18 2.13 0.69 10 997.4
20260508063412 16 325 6.4 19.3 0.18 2.13 0.69 10 998.0
20260508063112 16 337 3.2 17.7 0.10 2.06 0.61 10 998.2
20260508062813 16 342 6.4 17.7 0.10 2.06 0.61 10 998.7
20260508062512 16 4 6.4 17.7 0.10 2.06 0.61 10 998.5
20260508062212 16 354 6.4 17.7 0.10 2.06 0.61 10 998.7
20260508061911 16 349 3.2 17.7 0.05 2.01 0.56 10 999.2
20260508061612 16 333 1.6 17.7 0.05 2.01 0.56 10 999.0
20260508061311 16 315 6.4 17.7 0.05 2.01 0.56 10 999.2
20260508061011 16 320 4.8 17.7 0.05 2.01 0.56 10 999.0
20260508060712 16 321 8.0 17.7 0.10 2.01 0.56 10 998.9
20260508060411 16 332 4.8 20.9 0.10 2.01 0.56 10 998.9
20260508060110 16 329 3.2 20.9 0.18 2.01 0.56 10 998.7
20260508055812 16 329 8.0 20.9 0.23 2.01 0.56 10 998.9
20260508055511 16 308 4.8 16.1 0.36 2.01 0.56 10 998.9
20260508055211 16 320 3.2 19.3 0.56 2.01 0.56 10 998.9
20260508054912 16 310 6.4 19.3 0.48 1.93 0.48 10 999.0
20260508054611 16 330 11.3 19.3 0.48 1.93 0.48 10 999.2
20260508054310 16 327 9.7 19.3 0.48 1.93 0.48 10 998.9
20260508054011 16 342 4.8 14.5 0.48 1.93 0.48 10 998.7
20260508053711 16 16 8.0 12.9 0.48 1.93 0.48 10 998.9
20260508053411 16 5 3.2 11.3 0.48 1.93 0.48 10 998.7
20260508053110 16 351 1.6 14.5 0.48 1.93 0.48 10 998.7
20260508052810 16 334 3.2 17.7 0.48 1.93 0.48 10 998.9
20260508052511 16 325 3.2 24.1 0.48 1.93 0.48 10 999.0
20260508052210 16 334 8.0 24.1 0.48 1.93 0.48 10 999.2
20260508051910 16 339 8.0 24.1 0.48 1.93 0.48 10 999.1
20260508051611 16 353 4.8 20.9 0.48 1.93 0.48 10 999.1
20260508051310 16 322 4.8 20.9 0.48 1.93 0.48 10 999.1
20260508051010 17 284 9.7 29.0 0.48 1.93 0.48 10 999.2
20260508050711 17 271 4.8 29.0 0.43 1.88 0.43 10 999.2
20260508050410 17 307 4.8 40.2 0.36 1.80 0.36 10 999.6
20260508050109 17 305 9.7 40.2 0.36 1.80 0.36 10 999.7
20260508045811 18 325 9.7 40.2 0.23 1.68 0.23 10 999.6
20260508045510 18 311 19.3 40.2 0.10 1.57 0.10 10 999.6
20260508045209 19 297 4.8 17.7 0.00 1.45 0.00 10 1000.1
20260508044910 19 289 9.7 17.7 0.00 1.45 0.00 10 1000.2
20260508044609 19 292 4.8 14.5 0.00 1.45 0.00 10 998.9
20260508044309 19 305 4.8 14.5 0.00 1.45 0.00 10 998.6
20260508044010 20 284 3.2 9.7 0.00 1.45 0.00 10 998.7
20260508043709 20 289 3.2 9.7 0.00 1.45 0.00 10 998.5
20260508043408 20 267 0.0 9.7 0.00 1.45 0.00 10 998.6
20260508043110 20 278 3.2 9.7 0.00 1.45 0.00 10 998.6
20260508042809 20 291 0.0 6.4 0.00 1.45 0.00 10 998.5
20260508042508 20 308 0.0 6.4 0.00 1.45 0.00 10 998.6
20260508042210 20 302 3.2 12.9 0.00 1.45 0.00 10 998.2
20260508041909 20 268 3.2 12.9 0.00 1.45 0.00 10 998.2
20260508041626 21 255 1.6 12.9 0.00 1.45 0.00 10 998.4
20260508041328 21 247 0.0 14.5 0.00 1.45 0.00 10 998.5
20260508041027 21 226 3.2 14.5 0.00 1.45 0.00 10 998.5
20260508040727 21 230 3.2 14.5 0.00 1.45 0.00 10 998.2
20260508040427 21 228 1.6 14.5 0.00 1.45 0.00 10 998.4
20260508040127 22 254 0.0 11.3 0.00 1.45 0.00 10 998.2
20260508035826 22 282 3.2 11.3 0.00 1.45 0.00 10 998.2
20260508035527 22 295 3.2 14.5 0.00 1.45 0.00 10 998.7
20260508035226 22 301 4.8 20.9 0.00 1.45 0.00 10 998.2
20260508034925 22 283 0.0 20.9 0.00 1.45 0.00 10 998.4
20260508034627 22 284 4.8 20.9 0.00 1.45 0.00 10 998.7
20260508034326 22 337 1.6 14.5 0.00 1.45 0.00 10 998.7
20260508034027 22 13 1.6 24.1 0.00 1.45 0.00 10 998.2
20260508033727 22 15 3.2 24.1 0.00 1.45 0.00 10 998.1
20260508033426 22 30 4.8 24.1 0.00 1.45 0.00 10 998.2
20260508033125 22 42 9.7 24.1 0.00 1.45 0.00 10 998.1
20260508032826 22 37 3.2 19.3 0.00 1.45 0.00 10 998.2
20260508032526 22 29 4.8 19.3 0.00 1.45 0.00 10 998.2
20260508032225 22 24 8.0 19.3 0.00 1.45 0.00 10 998.2
20260508031925 22 12 4.8 14.5 0.00 1.45 0.00 10 998.5
20260508031626 22 330 3.2 9.7 0.00 1.45 0.00 10 998.4
20260508031326 22 208 4.8 9.7 0.00 1.45 0.00 10 998.5
20260508031025 22 228 0.0 9.7 0.00 1.45 0.00 10 998.7
20260508030726 22 234 1.6 9.7 0.00 1.45 0.00 10 998.7
20260508030426 22 229 3.2 9.7 0.00 1.45 0.00 10 998.7
20260508030125 22 288 4.8 14.5 0.00 1.45 0.00 10 998.6
20260508025824 22 350 4.8 17.7 0.00 1.45 1.45 10 998.2
20260508025525 22 24 3.2 17.7 0.00 1.45 1.45 10 998.1
20260508025225 22 34 4.8 17.7 0.00 1.45 1.45 10 997.7
20260508024924 22 44 9.7 17.7 0.00 1.45 1.45 10 997.5
20260508024625 22 42 8.0 19.3 0.00 1.45 1.45 10 997.5
20260508024325 22 17 0.0 19.3 0.00 1.45 1.45 10 997.5
20260508024024 22 10 6.4 19.3 0.00 1.45 1.45 10 997.6
20260508023725 22 12 8.0 24.1 0.00 1.45 1.45 10 997.7
20260508023424 22 21 3.2 24.1 0.00 1.45 1.45 10 997.7
20260508023124 22 351 4.8 27.4 0.00 1.45 1.45 10 997.7
20260508022825 22 352 3.2 27.4 0.00 1.45 1.45 10 998.0
20260508022524 22 348 4.8 27.4 0.00 1.45 1.45 10 998.0
20260508022224 22 8 4.8 20.9 0.00 1.45 1.45 10 998.1
20260508021923 22 11 8.0 24.1 0.00 1.45 1.45 10 998.2
20260508021624 23 11 9.7 24.1 0.00 1.45 1.45 10 998.1
20260508021324 23 17 4.8 24.1 0.00 1.45 1.45 10 998.2
20260508021025 23 339 9.7 19.3 0.00 1.45 1.45 10 998.2
20260508020724 23 334 4.8 19.3 0.00 1.45 1.45 10 998.5
20260508020424 23 341 8.0 19.3 0.00 1.45 1.45 10 998.4
20260508020123 23 351 9.7 19.3 0.00 1.45 1.45 10 998.6
20260508015824 23 1 3.2 19.3 0.00 1.45 1.45 10 998.7
20260508015523 23 350 9.7 20.9 0.00 1.45 1.45 10 998.7
20260508015223 23 6 4.8 20.9 0.00 1.45 1.45 10 998.6
20260508014924 23 353 6.4 25.7 0.00 1.45 1.45 10 998.6
20260508014623 23 346 9.7 25.7 0.00 1.45 1.45 10 998.6
20260508014323 23 359 1.6 25.7 0.00 1.45 1.45 10 998.7
20260508014024 23 350 4.8 25.7 0.00 1.45 1.45 10 998.7
20260508013723 23 357 9.7 20.9 0.00 1.45 1.45 10 998.7
20260508013423 23 355 6.4 20.9 0.00 1.45 1.45 10 998.6
20260508013124 23 8 3.2 25.7 0.00 1.45 1.45 10 998.6
20260508012823 23 6 4.8 25.7 0.00 1.45 1.45 10 998.7
20260508012523 23 358 3.2 30.6 0.00 1.45 1.45 10 998.7
20260508012224 23 342 6.4 30.6 0.00 1.45 1.45 10 998.9
20260508011923 23 330 9.7 30.6 0.00 1.45 1.45 10 998.7
20260508011622 23 336 8.0 32.2 0.00 1.45 1.45 10 998.9
20260508011322 23 341 11.3 32.2 0.00 1.45 1.45 10 999.0
20260508011023 23 344 8.0 32.2 0.00 1.45 1.45 10 998.9
20260508010722 23 324 14.5 32.2 0.00 1.45 1.45 10 999.0
20260508010422 23 310 8.0 22.5 0.00 1.45 1.45 10 999.0
20260508010123 23 311 4.8 22.5 0.00 1.45 1.45 10 998.7
20260508005822 23 11 4.8 22.5 0.00 1.45 1.45 10 998.9
20260508005522 23 345 3.2 30.6 0.00 1.45 1.45 10 999.1
20260508005222 23 2 6.4 30.6 0.00 1.45 1.45 10 999.0
20260508004922 23 358 4.8 30.6 0.00 1.45 1.45 10 998.7
20260508004621 23 9 8.0 19.3 0.00 1.45 1.45 10 999.0
20260508004323 23 332 4.8 17.7 0.00 1.45 1.45 10 999.0
20260508004022 23 321 6.4 24.1 0.00 1.45 1.45 10 999.0
20260508003721 23 331 3.2 24.1 0.00 1.45 1.45 10 999.0
20260508003422 23 341 8.0 25.7 0.00 1.45 1.45 10 998.9
20260508003121 23 333 6.4 25.7 0.00 1.45 1.45 10 998.9
20260508002822 23 335 9.7 25.7 0.00 1.45 1.45 10 998.9
20260508002522 23 357 9.7 25.7 0.00 1.45 1.45 10 999.0
20260508002221 23 356 4.8 22.5 0.00 1.45 1.45 10 999.0
20260508001922 23 2 8.0 19.3 0.00 1.45 1.45 10 999.0
20260508001621 23 343 9.7 19.3 0.00 1.45 1.45 10 998.7
20260508001321 23 214 9.7 19.3 0.00 1.45 1.45 10 998.9
20260508001022 23 168 4.8 19.3 0.00 1.45 1.45 10 998.7
20260508000720 23 348 3.2 19.3 0.00 1.45 1.45 10 998.7
20260508000422 23 22 4.8 16.1 0.00 1.45 1.45 10 998.7
20260508000121 23 358 4.8 25.7 0.00 1.45 1.45 10 998.7
20260507235820 23 32 9.7 25.7 0.00 1.45 1.45 10 998.7
20260507235520 23 333 4.8 25.7 0.00 1.45 1.45 10 998.5
20260507235220 23 279 4.8 17.7 0.00 1.45 1.45 10 998.5
20260507234921 23 296 6.4 14.5 0.00 1.45 1.45 10 998.5
20260507234621 23 309 4.8 11.3 0.00 1.45 1.45 10 998.5
20260507234320 23 351 4.8 14.5 0.00 1.45 1.45 10 998.4
20260507234021 23 5 1.6 14.5 0.00 1.45 1.45 10 998.2
20260507233721 23 351 3.2 14.5 0.00 1.45 1.45 10 998.2
20260507233419 23 351 8.0 14.5 0.00 1.45 1.45 10 998.2
20260507233121 23 330 1.6 14.5 0.00 1.45 1.45 10 998.2
20260507232820 23 340 3.2 14.5 0.00 1.45 1.45 10 998.2
20260507232519 23 332 0.0 14.5 0.00 1.45 1.45 10 998.2
20260507232221 23 343 6.4 14.5 0.00 1.45 1.45 10 998.4
20260507231920 23 343 0.0 11.3 0.00 1.45 1.45 10 998.4
20260507231619 23 1 1.6 11.3 0.00 1.45 1.45 10 998.4
20260507231320 23 351 0.0 11.3 0.00 1.45 1.45 10 998.4
20260507231020 23 340 1.6 14.5 0.00 1.45 1.45 10 998.4
20260507230719 23 333 3.2 14.5 0.00 1.45 1.45 10 998.5
20260507230420 23 320 4.8 14.5 0.00 1.45 1.45 10 998.4
20260507230119 23 335 3.2 12.9 0.00 1.45 1.45 10 998.2
20260507225819 23 319 0.0 12.9 0.00 1.45 1.45 10 998.2
20260507225520 23 38 3.2 16.1 0.00 1.45 1.45 10 998.4
20260507225219 23 53 4.8 16.1 0.00 1.45 1.45 10 998.2
20260507224918 23 57 1.6 16.1 0.00 1.45 1.45 10 998.2
20260507224620 23 49 4.8 16.1 0.00 1.45 1.45 10 998.2
20260507224319 23 32 1.6 11.3 0.00 1.45 1.45 10 998.2
20260507224018 23 5 3.2 11.3 0.00 1.45 1.45 10 998.1
20260507223719 23 28 4.8 14.5 0.00 1.45 1.45 10 998.2
20260507223419 23 28 4.8 14.5 0.00 1.45 1.45 10 998.4
20260507223118 23 37 4.8 14.5 0.00 1.45 1.45 10 998.5
20260507222817 23 21 3.2 17.7 0.00 1.45 1.45 10 998.4
20260507222519 23 339 1.6 17.7 0.00 1.45 1.45 10 998.5
20260507222218 23 339 3.2 17.7 0.00 1.45 1.45 10 998.4
20260507221917 23 31 3.2 12.9 0.00 1.45 1.45 10 998.4
20260507221618 23 323 1.6 12.9 0.00 1.45 1.45 10 998.4
20260507221317 23 19 4.8 12.9 0.00 1.45 1.45 10 998.5
20260507221017 23 359 1.6 11.3 0.00 1.45 1.45 10 998.5
20260507220718 23 11 3.2 11.3 0.00 1.45 1.45 10 998.5
20260507220417 23 43 4.8 12.9 0.00 1.45 1.45 10 998.6
20260507220116 23 46 1.6 14.5 0.00 1.45 1.45 10 998.4
20260507215818 23 59 1.6 14.5 0.00 1.45 1.45 10 998.6
20260507215517 23 40 6.4 14.5 0.00 1.45 1.45 10 998.5
20260507215217 23 5 9.7 14.5 0.00 1.45 1.45 10 998.5
20260507214918 23 10 3.2 9.7 0.00 1.45 1.45 10 998.6
20260507214617 23 10 6.4 9.7 0.00 1.45 1.45 10 998.6
20260507214316 23 32 4.8 9.7 0.00 1.45 1.45 10 998.7
20260507214018 23 37 4.8 9.7 0.00 1.45 1.45 10 998.7
20260507213717 23 42 4.8 9.7 0.00 1.45 1.45 10 998.6
20260507213417 24 44 0.0 9.7 0.00 1.45 1.45 10 998.6
20260507213117 24 39 4.8 9.7 0.00 1.45 1.45 10 998.7
20260507212816 24 19 1.6 8.0 0.00 1.45 1.45 10 998.7
20260507212517 24 10 1.6 8.0 0.00 1.45 1.45 10 998.9
20260507212217 24 318 1.6 8.0 0.00 1.45 1.45 10 998.7
20260507211916 24 335 0.0 8.0 0.00 1.45 1.45 10 998.7
20260507211617 24 16 0.0 11.3 0.00 1.45 1.45 10 999.0
20260507211316 24 33 0.0 11.3 0.00 1.45 1.45 10 998.9
20260507211015 24 353 0.0 11.3 0.00 1.45 1.45 10 999.0
20260507210717 25 356 6.4 11.3 0.00 1.45 1.45 10 998.9
20260507210416 25 349 3.2 11.3 0.00 1.45 1.45 10 998.9
20260507210115 25 9 4.8 12.9 0.00 1.45 1.45 10 998.7
20260507205815 25 5 4.8 12.9 0.00 1.45 1.45 10 998.7
20260507205516 25 353 3.2 12.9 0.00 1.45 1.45 10 998.7
20260507205215 25 14 6.4 12.9 0.00 1.45 1.45 10 998.7
20260507204915 25 348 0.0 17.7 0.00 1.45 1.45 10 998.7
20260507204616 25 348 3.2 17.7 0.00 1.45 1.45 10 998.7
20260507204315 25 340 4.8 17.7 0.00 1.45 1.45 10 998.7
20260507204014 25 338 8.0 16.1 0.00 1.45 1.45 10 998.7
20260507203716 25 311 1.6 16.1 0.00 1.45 1.45 10 998.7
20260507203415 25 293 4.8 16.1 0.00 1.45 1.45 10 998.7
20260507203114 25 276 4.8 14.5 0.00 1.45 1.45 10 998.6
20260507202816 25 2 4.8 17.7 0.00 1.45 1.45 10 998.7
20260507202515 25 3 8.0 17.7 0.00 1.45 1.45 10 998.7
20260507202214 26 358 4.8 19.3 0.00 1.45 1.45 10 998.6
20260507201916 26 328 8.0 19.3 0.00 1.45 1.45 10 998.5
20260507201615 26 314 8.0 22.5 0.00 1.45 1.45 10 998.6
20260507195550 26 346 4.8 24.1 0.00 1.45 1.45 10 998.6
20260507195249 26 1 11.3 24.1 0.00 1.45 1.45 10 998.6
20260507194948 26 339 9.7 24.1 0.00 1.45 1.45 10 998.7
20260507194648 26 351 3.2 24.1 0.00 1.45 1.45 10 998.6
20260507194349 26 322 14.5 24.1 0.00 1.45 1.45 10 998.7
20260507194048 26 335 3.2 24.1 0.00 1.45 1.45 10 998.7
20260507193747 26 335 14.5 27.4 0.00 1.45 1.45 10 998.7
20260507193449 26 325 8.0 27.4 0.00 1.45 1.45 10 998.7
20260507193148 27 327 4.8 27.4 0.00 1.45 1.45 10 998.7
20260507192847 27 327 6.4 27.4 0.00 1.45 1.45 10 998.7
20260507192549 27 328 9.7 24.1 0.00 1.45 1.45 10 998.7
20260507192248 27 340 4.8 24.1 0.00 1.45 1.45 10 998.7
20260507191947 27 334 4.8 24.1 0.00 1.45 1.45 10 998.9
20260507191648 27 338 9.7 24.1 0.00 1.45 1.45 10 998.7
20260507191348 27 330 4.8 24.1 0.00 1.45 1.45 10 998.7
20260507191047 27 336 8.0 24.1 0.00 1.45 1.45 10 998.7
20260507190748 27 330 3.2 32.2 0.00 1.45 1.45 10 998.7
20260507190448 27 345 4.8 32.2 0.00 1.45 1.45 10 998.7
20260507190147 27 322 12.9 32.2 0.00 1.45 1.45 10 998.6
20260507185848 27 344 14.5 24.1 0.00 1.45 1.45 10 998.7
20260507185547 27 307 6.4 19.3 0.00 1.45 1.45 10 998.7
20260507185247 27 306 1.6 19.3 0.00 1.45 1.45 10 998.7
20260507184946 27 306 4.8 20.9 0.00 1.45 1.45 10 998.7
20260507184648 27 312 8.0 32.2 0.00 1.45 1.45 10 998.7
20260507184347 27 323 3.2 32.2 0.00 1.45 1.45 10 998.7
20260507184048 27 318 11.3 32.2 0.00 1.45 1.45 10 998.7
20260507183747 27 323 11.3 32.2 0.00 1.45 1.45 10 998.7
20260507183447 27 343 4.8 24.1 0.00 1.45 1.45 10 998.7
20260507183146 27 325 12.9 38.6 0.00 1.45 1.45 10 998.7
20260507182848 27 313 14.5 38.6 0.00 1.45 1.45 10 998.6
20260507182547 27 309 4.8 38.6 0.00 1.45 1.45 10 998.7
20260507182246 27 317 9.7 22.5 0.00 1.45 1.45 10 998.7
20260507181947 27 335 6.4 27.4 0.00 1.45 1.45 10 998.7
20260507181647 27 322 6.4 30.6 0.00 1.45 1.45 10 998.9
20260507181346 28 311 3.2 30.6 0.00 1.45 1.45 10 999.0
20260507181047 28 318 11.3 30.6 0.00 1.45 1.45 10 998.9
20260507180747 28 335 9.7 30.6 0.00 1.45 1.45 10 999.0
20260507180446 28 339 4.8 30.6 0.00 1.45 1.45 10 998.7
20260507180147 28 354 9.7 30.6 0.00 1.45 1.45 10 999.0
20260507175847 28 319 6.4 30.6 0.00 1.45 1.45 10 999.1
20260507175546 28 317 12.9 27.4 0.00 1.45 1.45 10 999.0
20260507175245 28 307 4.8 27.4 0.00 1.45 1.45 10 999.0
20260507174945 28 321 9.7 29.0 0.00 1.45 1.45 10 999.2
20260507174647 27 315 6.4 37.0 0.00 1.45 1.45 10 999.1
20260507174346 27 314 8.0 40.2 0.00 1.45 1.45 10 999.2
20260507174045 26 309 8.0 40.2 0.00 1.45 1.45 10 999.2
20260507173746 27 306 6.4 40.2 0.00 1.45 1.45 10 999.4
20260507173446 27 290 11.3 33.8 0.00 1.45 1.45 10 999.2
20260507173145 27 299 11.3 32.2 0.00 1.45 1.45 10 999.2
20260507172847 28 321 9.7 32.2 0.00 1.45 1.45 10 999.2
20260507172546 28 334 8.0 37.0 0.00 1.45 1.45 10 999.1
20260507172245 28 332 6.4 37.0 0.00 1.45 1.45 10 999.2
20260507171944 28 325 11.3 37.0 0.00 1.45 1.45 10 999.2
20260507171646 28 330 14.5 25.7 0.00 1.45 1.45 10 999.1
20260507171346 27 351 14.5 25.7 1.45 1.45 1.45 10 999.2
20260507171045 27 290 4.8 22.5 1.45 1.45 1.45 10 999.2
20260507170745 27 312 4.8 37.0 1.45 1.45 1.45 10 999.4
20260507170445 27 309 6.4 37.0 1.45 1.45 1.45 10 999.4
20260507170144 27 314 4.8 37.0 1.45 1.45 1.45 10 999.4
20260507165846 27 319 14.5 40.2 1.45 1.45 1.45 10 999.4
20260507165545 27 312 6.4 40.2 1.45 1.45 1.45 10 999.5
20260507165244 27 315 4.8 40.2 1.45 1.45 1.45 10 999.2
20260507164946 27 314 9.7 25.7 1.45 1.45 1.45 10 999.5
20260507164645 28 331 9.7 33.8 1.45 1.45 1.45 10 999.2
20260507164344 29 332 8.0 33.8 1.45 1.45 1.45 10 999.5
20260507164045 29 321 9.7 33.8 1.45 1.45 1.45 10 999.4
20260507163744 29 282 9.7 43.5 1.45 1.45 1.45 10 999.2
20260507163444 29 282 11.3 48.3 1.45 1.45 1.45 10 999.4
20260507163145 29 301 4.8 48.3 1.45 1.45 1.45 10 999.6
20260507162844 29 346 14.5 48.3 1.45 1.45 1.45 10 999.5
20260507162543 29 338 12.9 59.5 1.45 1.45 1.45 10 999.6
20260507162243 29 347 9.7 59.5 1.45 1.45 1.45 10 999.7
20260507161944 28 343 12.9 59.5 1.45 1.45 1.45 10 999.6
20260507161644 28 293 8.0 59.5 1.45 1.45 1.45 10 999.6
20260507161344 18 30 0.0 6.4 0.00 0.00 0.00 10 1008.5
20260507161044 18 30 0.0 6.4 0.00 0.00 0.00 10 1008.5
20260507160743 18 30 0.0 6.4 0.00 0.00 0.00 10 1008.5
20260507160444 18 30 0.0 6.4 0.00 0.00 0.00 10 1008.5
20260507160144 18 30 0.0 6.4 0.00 0.00 0.00 10 1008.5
20260507155843 18 30 0.0 6.4 0.00 0.00 0.00 10 1008.5
20260507155542 18 30 0.0 6.4 0.00 0.00 0.00 10 1008.5
20260507155244 18 30 0.0 6.4 0.00 0.00 0.00 10 1008.5
20260507154943 18 30 0.0 6.4 0.00 0.00 0.00 10 1008.5
20260507154643 18 30 0.0 6.4 0.00 0.00 0.00 10 1008.5
20260507154344 18 30 0.0 6.4 0.00 0.00 0.00 10 1008.5
20260507154044 18 30 0.0 6.4 0.00 0.00 0.00 10 1008.5
20260507153743 18 30 0.0 6.4 0.00 0.00 0.00 10 1008.5
20260507153443 18 30 0.0 6.4 0.00 0.00 0.00 10 1008.5
20260507153144 18 30 0.0 6.4 0.00 0.00 0.00 10 1008.5
20260507152844 18 30 0.0 6.4 0.00 0.00 0.00 10 1008.5
20260507152544 18 30 0.0 6.4 0.00 0.00 0.00 10 1008.5
20260507152244 18 30 0.0 6.4 0.00 0.00 0.00 10 1008.5
20260507151943 18 30 0.0 6.4 0.00 0.00 0.00 10 1008.5
20260507151643 18 30 0.0 6.4 0.00 0.00 0.00 10 1008.5
20260507151344 18 30 0.0 6.4 0.00 0.00 0.00 10 1008.5
20260507151043 18 30 0.0 6.4 0.00 0.00 0.00 10 1008.5
20260507150743 18 30 0.0 6.4 0.00 0.00 0.00 10 1008.5
20260507150444 18 30 0.0 6.4 0.00 0.00 0.00 10 1008.5
20260507150144 18 30 0.0 6.4 0.00 0.00 0.00 10 1008.5
20260507145843 18 30 0.0 6.4 0.00 0.00 0.00 10 1008.5
20260507145544 18 30 0.0 6.4 0.00 0.00 0.00 10 1008.5
20260507145244 18 30 0.0 6.4 0.00 0.00 0.00 10 1008.5
20260507144943 18 30 0.0 6.4 0.00 0.00 0.00 10 1008.5
20260507144642 18 30 0.0 6.4 0.00 0.00 0.00 10 1008.5
20260507144344 18 30 0.0 6.4 0.00 0.00 0.00 10 1008.5
20260507144043 18 30 0.0 6.4 0.00 0.00 0.00 10 1008.5
20260507143744 18 30 0.0 6.4 0.00 0.00 0.00 10 1008.5
20260507143444 18 30 0.0 6.4 0.00 0.00 0.00 10 1008.5
20260507143143 18 30 0.0 6.4 0.00 0.00 0.00 10 1008.5
20260507142844 18 30 0.0 6.4 0.00 0.00 0.00 10 1008.5
20260507142544 18 30 0.0 6.4 0.00 0.00 0.00 10 1008.5
20260507142243 18 30 0.0 6.4 0.00 0.00 0.00 10 1008.5
20260507141944 18 30 0.0 6.4 0.00 0.00 0.00 10 1008.5
20260507141644 18 30 0.0 6.4 0.00 0.00 0.00 10 1008.5
20260507141343 18 30 0.0 6.4 0.00 0.00 0.00 10 1008.5
20260507141044 18 30 0.0 6.4 0.00 0.00 0.00 10 1008.5
20260507140744 18 30 0.0 6.4 0.00 0.00 0.00 10 1008.5
20260507140443 18 30 0.0 6.4 0.00 0.00 0.00 10 1008.5
20260507140145 18 30 0.0 6.4 0.00 0.00 0.00 10 1008.5
20260507135844 18 30 0.0 6.4 0.00 0.00 0.00 10 1008.5
20260507135543 18 30 0.0 6.4 0.00 0.00 0.00 10 1008.5
20260507135244 18 30 0.0 6.4 0.00 0.00 0.00 10 1008.5
20260507134943 18 30 0.0 6.4 0.00 0.00 0.00 10 1008.5
20260507134644 18 30 0.0 6.4 0.00 0.00 0.00 10 1008.5
20260507134343 18 30 0.0 6.4 0.00 0.00 0.00 10 1008.5
20260507134043 18 30 0.0 6.4 0.00 0.00 0.00 10 1008.5
20260507133744 18 30 0.0 6.4 0.00 0.00 0.00 10 1008.5
20260507133444 18 30 0.0 6.4 0.00 0.00 0.00 10 1008.5
20260507133143 18 30 0.0 6.4 0.00 0.00 0.00 10 1008.5
20260507132844 18 30 0.0 6.4 0.00 0.00 0.00 10 1008.5
20260507132544 18 30 0.0 6.4 0.00 0.00 0.00 10 1008.5
20260507132243 18 30 0.0 6.4 0.00 0.00 0.00 10 1008.5
20260507131943 18 30 0.0 6.4 0.00 0.00 0.00 10 1008.5
20260507131644 18 30 0.0 6.4 0.00 0.00 0.00 10 1008.5
20260507131343 18 30 0.0 6.4 0.00 0.00 0.00 10 1008.5
20260507131044 18 30 0.0 6.4 0.00 0.00 0.00 10 1008.5
20260507130744 18 30 0.0 6.4 0.00 0.00 0.00 10 1008.5
20260507130443 18 30 0.0 6.4 0.00 0.00 0.00 10 1008.5
20260507130144 18 30 0.0 6.4 0.00 0.00 0.00 10 1008.5
20260507125844 18 30 0.0 6.4 0.00 0.00 0.00 10 1008.5
20260507125543 18 30 0.0 6.4 0.00 0.00 0.00 10 1008.5
20260507125243 18 30 0.0 6.4 0.00 0.00 0.00 10 1008.5
20260507124944 18 30 0.0 6.4 0.00 0.00 0.00 10 1008.5
20260507124643 18 30 0.0 6.4 0.00 0.00 0.00 10 1008.5
20260507124344 18 30 0.0 6.4 0.00 0.00 0.00 10 1008.5
20260507124044 18 30 0.0 6.4 0.00 0.00 0.00 10 1008.5
20260507123743 18 30 0.0 6.4 0.00 0.00 0.00 10 1008.5
20260507123445 18 30 0.0 6.4 0.00 0.00 0.00 10 1008.5
20260507123144 18 30 0.0 6.4 0.00 0.00 0.00 10 1008.5
20260507122844 18 30 0.0 6.4 0.00 0.00 0.00 10 1008.5
20260507122544 18 30 0.0 6.4 0.00 0.00 0.00 10 1008.5
20260507122243 18 30 0.0 6.4 0.00 0.00 0.00 10 1008.5
20260507121944 18 30 0.0 6.4 0.00 0.00 0.00 10 1008.5
20260507121644 18 30 0.0 6.4 0.00 0.00 0.00 10 1008.5
20260507121343 18 30 0.0 6.4 0.00 0.00 0.00 10 1008.5
20260507121044 18 30 0.0 6.4 0.00 0.00 0.00 10 1008.5
20260507120744 18 30 0.0 6.4 0.00 0.00 0.00 10 1008.5
20260507120444 18 30 0.0 6.4 0.00 0.00 0.00 10 1008.5
20260507120143 18 30 0.0 6.4 0.00 0.00 0.00 10 1008.5
20260507115843 18 30 0.0 6.4 0.00 0.00 0.00 10 1008.5
20260507115544 18 30 0.0 6.4 0.00 0.00 0.00 10 1008.5
20260507115243 18 30 0.0 6.4 0.00 0.00 0.00 10 1008.5
20260507114943 18 30 0.0 6.4 0.00 0.00 0.00 10 1008.5
20260507114644 18 30 0.0 6.4 0.00 0.00 0.00 10 1008.5
20260507114343 18 30 0.0 6.4 0.00 0.00 0.00 10 1008.5
20260507114043 18 30 0.0 6.4 0.00 0.00 0.00 10 1008.5
20260507113744 18 30 0.0 6.4 0.00 0.00 0.00 10 1008.5
20260507113443 18 30 0.0 6.4 0.00 0.00 0.00 10 1008.5
20260507113143 18 30 0.0 6.4 0.00 0.00 0.00 10 1008.5
20260507112844 18 30 0.0 6.4 0.00 0.00 0.00 10 1008.5
20260507112544 18 30 0.0 6.4 0.00 0.00 0.00 10 1008.5
20260507112243 18 30 0.0 6.4 0.00 0.00 0.00 10 1008.5
20260507111944 18 30 0.0 6.4 0.00 0.00 0.00 10 1008.5
20260507111644 18 30 0.0 6.4 0.00 0.00 0.00 10 1008.5
20260507111343 18 30 0.0 6.4 0.00 0.00 0.00 10 1008.5
20260507111044 18 30 0.0 6.4 0.00 0.00 0.00 10 1008.5
20260507110743 18 30 0.0 6.4 0.00 0.00 0.00 10 1008.5
20260507110444 18 30 0.0 6.4 0.00 0.00 0.00 10 1008.5
20260507110143 18 30 0.0 6.4 0.00 0.00 0.00 10 1008.5
20260507105843 18 30 0.0 6.4 0.00 0.00 0.00 10 1008.5
20260507105544 18 30 0.0 6.4 0.00 0.00 0.00 10 1008.5
20260507105244 18 30 0.0 6.4 0.00 0.00 0.00 10 1008.5
20260507104944 18 30 0.0 6.4 0.00 0.00 0.00 10 1008.5
20260507104643 18 30 0.0 6.4 0.00 0.00 0.00 10 1008.5
20260507104344 18 30 0.0 6.4 0.00 0.00 0.00 10 1008.5
20260507104044 18 30 0.0 6.4 0.00 0.00 0.00 10 1008.5
20260507103744 18 30 0.0 6.4 0.00 0.00 0.00 10 1008.5
20260507103443 18 30 0.0 6.4 0.00 0.00 0.00 10 1008.5
20260507103143 18 30 0.0 6.4 0.00 0.00 0.00 10 1008.5
20260507102844 18 30 0.0 6.4 0.00 0.00 0.00 10 1008.5
20260507102543 18 30 0.0 6.4 0.00 0.00 0.00 10 1008.5
20260507102243 18 30 0.0 6.4 0.00 0.00 0.00 10 1008.5
20260507101944 18 30 0.0 6.4 0.00 0.00 0.00 10 1008.5
20260507101644 18 30 0.0 6.4 0.00 0.00 0.00 10 1008.5
20260507101343 18 30 0.0 6.4 0.00 0.00 0.00 10 1008.5
20260507101044 18 30 0.0 6.4 0.00 0.00 0.00 10 1008.5
20260507100743 18 30 0.0 6.4 0.00 0.00 0.00 10 1008.5
20260507100443 18 30 0.0 6.4 0.00 0.00 0.00 10 1008.5
20260507100144 18 30 0.0 6.4 0.00 0.00 0.00 10 1008.5
20260507095844 18 30 0.0 6.4 0.00 0.00 0.00 10 1008.5
20260507095543 18 30 0.0 6.4 0.00 0.00 0.00 10 1008.5
20260507095243 18 30 0.0 6.4 0.00 0.00 0.00 10 1008.5
20260507094943 18 30 0.0 6.4 0.00 0.00 0.00 10 1008.5
20260507094644 18 30 0.0 6.4 0.00 0.00 0.00 10 1008.5
20260507094343 18 30 0.0 6.4 0.00 0.00 0.00 10 1008.5
20260507094044 18 30 0.0 6.4 0.00 0.00 0.00 10 1008.5
20260507093744 18 30 0.0 6.4 0.00 0.00 0.00 10 1008.5
20260507093443 18 30 0.0 6.4 0.00 0.00 0.00 10 1008.5
20260507093144 18 30 0.0 6.4 0.00 0.00 0.00 10 1008.5
20260507092843 18 30 0.0 6.4 0.00 0.00 0.00 10 1008.5
20260507092544 18 30 0.0 6.4 0.00 0.00 0.00 10 1008.5
20260507092244 18 30 0.0 6.4 0.00 0.00 0.00 10 1008.5
20260507091943 18 30 0.0 6.4 0.00 0.00 0.00 10 1008.5
20260507091645 18 30 0.0 6.4 0.00 0.00 0.00 10 1008.5
20260507091344 18 30 0.0 6.4 0.00 0.00 0.00 10 1008.5
20260507091043 18 30 0.0 6.4 0.00 0.00 0.00 10 1008.5
20260507090744 18 30 0.0 6.4 0.00 0.00 0.00 10 1008.5
20260507090444 18 30 0.0 6.4 0.00 0.00 0.00 10 1008.5
20260507090143 18 30 0.0 6.4 0.00 0.00 0.00 10 1008.5
20260507085845 18 30 0.0 6.4 0.00 0.00 0.00 10 1008.5
20260507085544 18 30 0.0 6.4 0.00 0.00 0.00 10 1008.5
20260507085243 18 30 0.0 6.4 0.00 0.00 0.00 10 1008.5
20260507084944 18 30 0.0 6.4 0.00 0.00 0.00 10 1008.5
20260507084644 18 30 0.0 6.4 0.00 0.00 0.00 10 1008.5
20260507084343 18 30 0.0 6.4 0.00 0.00 0.00 10 1008.5
20260507084044 18 30 0.0 6.4 0.00 0.00 0.00 10 1008.5
20260507083744 18 30 0.0 6.4 0.00 0.00 0.00 10 1008.5
20260507083444 18 30 0.0 6.4 0.00 0.00 0.00 10 1008.5
20260507083144 18 30 0.0 6.4 0.00 0.00 0.00 10 1008.5
20260507082843 18 30 0.0 6.4 0.00 0.00 0.00 10 1008.5
20260507082544 18 30 0.0 6.4 0.00 0.00 0.00 10 1008.5
20260507082244 18 30 0.0 6.4 0.00 0.00 0.00 10 1008.5
20260507081943 18 30 0.0 6.4 0.00 0.00 0.00 10 1008.5
20260507081645 18 30 0.0 6.4 0.00 0.00 0.00 10 1008.5
20260507081344 18 30 0.0 6.4 0.00 0.00 0.00 10 1008.5
20260507081043 18 30 0.0 6.4 0.00 0.00 0.00 10 1008.5
20260507080744 18 30 0.0 6.4 0.00 0.00 0.00 10 1008.5
20260507080444 18 30 0.0 6.4 0.00 0.00 0.00 10 1008.5
20260507080143 18 30 0.0 6.4 0.00 0.00 0.00 10 1008.5
20260507075844 18 30 0.0 6.4 0.00 0.00 0.00 10 1008.5
20260507075544 18 30 0.0 6.4 0.00 0.00 0.00 10 1008.5